Time,TemperatureF,DewpointF,PressureIn,WindDirection,WindDirectionDegrees,WindSpeedMPH,WindSpeedGustMPH,Humidity,HourlyPrecipIn,Conditions,Clouds,dailyrainin,SoftwareType,DateUTC
2013-05-17 12:22:00,66.1,44.7,30.10,SE,135,2.0,-999.0,46,0.00,,,0.00,Wunderground v.1.15,2013-05-17 16:22:00,
2013-05-17 12:27:00,66.6,45.2,30.09,North,0,1.0,-999.0,46,0.00,,,0.00,Wunderground v.1.15,2013-05-17 16:27:00,
2013-05-17 12:32:00,67.1,45.6,30.09,ENE,68,3.0,-999.0,46,0.00,,,0.00,Wunderground v.1.15,2013-05-17 16:32:00,
2013-05-17 12:37:00,67.4,45.3,30.09,N/A,-737280,0.0,-999.0,45,0.00,,,0.00,Wunderground v.1.15,2013-05-17 16:37:00,
2013-05-17 12:42:00,67.7,45.0,30.10,ENE,68,5.0,-999.0,44,0.00,,,0.00,Wunderground v.1.15,2013-05-17 16:42:00,
2013-05-17 12:47:00,67.4,45.9,30.10,East,90,2.0,-999.0,46,0.00,,,0.00,Wunderground v.1.15,2013-05-17 16:47:00,
2013-05-17 12:52:00,67.7,46.2,30.09,NE,45,1.0,-999.0,46,0.00,,,0.00,Wunderground v.1.15,2013-05-17 16:52:00,
2013-05-17 12:57:00,67.6,45.5,30.09,NE,45,5.0,-999.0,45,0.00,,,0.00,Wunderground v.1.15,2013-05-17 16:57:00,
2013-05-17 13:02:00,67.4,45.3,30.09,NE,45,4.0,-999.0,45,0.00,,,0.00,Wunderground v.1.15,2013-05-17 17:02:00,
2013-05-17 13:07:00,67.9,45.8,30.09,East,90,1.0,-999.0,45,0.00,,,0.00,Wunderground v.1.15,2013-05-17 17:07:00,
2013-05-17 13:12:00,68.5,45.1,30.09,ENE,68,1.0,-999.0,43,0.00,,,0.00,Wunderground v.1.15,2013-05-17 17:12:00,
2013-05-17 13:17:00,68.6,44.6,30.10,North,0,4.0,-999.0,42,0.00,,,0.00,Wunderground v.1.15,2013-05-17 17:17:00,
2013-05-17 13:22:00,68.7,44.0,30.10,East,90,4.0,-999.0,41,0.00,,,0.00,Wunderground v.1.15,2013-05-17 17:22:00,
2013-05-17 13:27:00,69.0,45.6,30.09,NE,45,2.0,-999.0,43,0.00,,,0.00,Wunderground v.1.15,2013-05-17 17:27:00,
2013-05-17 13:32:00,69.6,46.1,30.09,South,180,1.0,-999.0,43,0.00,,,0.00,Wunderground v.1.15,2013-05-17 17:32:00,
2013-05-17 13:37:00,70.4,46.8,30.09,ESE,113,3.0,-999.0,43,0.00,,,0.00,Wunderground v.1.15,2013-05-17 17:37:00,
2013-05-17 13:42:00,70.4,45.6,30.09,South,180,2.0,-999.0,41,0.00,,,0.00,Wunderground v.1.15,2013-05-17 17:42:00,
2013-05-17 13:47:00,70.2,46.0,30.09,South,180,0.0,-999.0,42,0.00,,,0.00,Wunderground v.1.15,2013-05-17 17:47:00,
2013-05-17 13:52:00,70.2,46.0,30.09,NE,45,3.0,-999.0,42,0.00,,,0.00,Wunderground v.1.15,2013-05-17 17:52:00,
2013-05-17 13:57:00,70.0,46.5,30.09,NE,45,4.0,-999.0,43,0.00,,,0.00,Wunderground v.1.15,2013-05-17 17:57:00,
2013-05-17 14:02:00,69.7,46.2,30.10,ENE,68,4.0,-999.0,43,0.00,,,0.00,Wunderground v.1.15,2013-05-17 18:02:00,
2013-05-17 14:07:00,69.2,46.4,30.09,North,0,3.0,-999.0,44,0.00,,,0.00,Wunderground v.1.15,2013-05-17 18:07:00,
2013-05-17 14:12:00,69.2,45.7,30.10,NE,45,6.0,-999.0,43,0.00,,,0.00,Wunderground v.1.15,2013-05-17 18:12:00,
2013-05-17 14:17:00,69.0,46.2,30.09,North,0,4.0,-999.0,44,0.00,,,0.00,Wunderground v.1.15,2013-05-17 18:17:00,
2013-05-17 14:22:00,69.1,46.9,30.09,NE,45,6.0,-999.0,45,0.00,,,0.00,Wunderground v.1.15,2013-05-17 18:22:00,
2013-05-17 14:27:00,69.3,45.8,30.09,ENE,68,4.0,-999.0,43,0.00,,,0.00,Wunderground v.1.15,2013-05-17 18:27:00,
2013-05-17 14:32:00,69.7,45.6,30.09,NE,45,4.0,-999.0,42,0.00,,,0.00,Wunderground v.1.15,2013-05-17 18:32:00,
2013-05-17 14:37:00,69.9,45.1,30.09,NE,45,4.0,-999.0,41,0.00,,,0.00,Wunderground v.1.15,2013-05-17 18:37:00,
2013-05-17 14:42:00,70.0,45.8,30.09,NE,45,3.0,-999.0,42,0.00,,,0.00,Wunderground v.1.15,2013-05-17 18:42:00,
2013-05-17 14:47:00,70.3,46.1,30.09,NNW,338,3.0,-999.0,42,0.00,,,0.00,Wunderground v.1.15,2013-05-17 18:47:00,
2013-05-17 14:52:00,70.4,46.2,30.08,ENE,68,2.0,-999.0,42,0.00,,,0.00,Wunderground v.1.15,2013-05-17 18:52:00,
2013-05-17 14:57:00,70.7,46.5,30.08,East,90,2.0,-999.0,42,0.00,,,0.00,Wunderground v.1.15,2013-05-17 18:57:00,
2013-05-17 15:02:00,70.6,45.7,30.08,NNE,23,5.0,-999.0,41,0.00,,,0.00,Wunderground v.1.15,2013-05-17 19:02:00,
2013-05-17 15:07:00,70.6,45.7,30.09,North,0,2.0,-999.0,41,0.00,,,0.00,Wunderground v.1.15,2013-05-17 19:07:00,
2013-05-17 15:12:00,71.0,46.1,30.09,NNE,23,1.0,-999.0,41,0.00,,,0.00,Wunderground v.1.15,2013-05-17 19:12:00,
2013-05-17 15:17:00,71.0,44.1,30.08,NE,45,2.0,-999.0,38,0.00,,,0.00,Wunderground v.1.15,2013-05-17 19:17:00,
2013-05-17 15:22:00,70.7,45.2,30.09,NE,45,6.0,-999.0,40,0.00,,,0.00,Wunderground v.1.15,2013-05-17 19:22:00,
2013-05-17 15:27:00,70.7,45.2,30.09,ENE,68,1.0,-999.0,40,0.00,,,0.00,Wunderground v.1.15,2013-05-17 19:27:00,
2013-05-17 15:32:00,70.5,44.3,30.09,North,0,2.0,-999.0,39,0.00,,,0.00,Wunderground v.1.15,2013-05-17 19:32:00,
2013-05-17 15:37:00,71.1,44.9,30.08,NNE,23,6.0,-999.0,39,0.00,,,0.00,Wunderground v.1.15,2013-05-17 19:37:00,
2013-05-17 15:42:00,71.5,45.9,30.08,SE,135,4.0,-999.0,40,0.00,,,0.00,Wunderground v.1.15,2013-05-17 19:42:00,
2013-05-17 15:47:00,70.8,44.6,30.08,NNE,23,2.0,-999.0,39,0.00,,,0.00,Wunderground v.1.15,2013-05-17 19:47:00,
2013-05-17 15:52:00,70.9,44.7,30.08,ENE,68,7.0,-999.0,39,0.00,,,0.00,Wunderground v.1.15,2013-05-17 19:52:00,
2013-05-17 15:57:00,70.9,46.7,30.07,East,90,3.0,-999.0,42,0.00,,,0.00,Wunderground v.1.15,2013-05-17 19:57:00,
2013-05-17 16:02:00,71.5,45.2,30.07,ENE,68,5.0,-999.0,39,0.00,,,0.00,Wunderground v.1.15,2013-05-17 20:02:00,
2013-05-17 16:07:00,71.4,44.5,30.07,East,90,8.0,-999.0,38,0.00,,,0.00,Wunderground v.1.15,2013-05-17 20:07:00,
2013-05-17 16:12:00,71.4,45.1,30.07,ENE,68,4.0,-999.0,39,0.00,,,0.00,Wunderground v.1.15,2013-05-17 20:12:00,
2013-05-17 16:17:00,71.4,46.5,30.07,NE,45,6.0,-999.0,41,0.00,,,0.00,Wunderground v.1.15,2013-05-17 20:17:00,
2013-05-17 16:22:00,71.6,45.3,30.07,ENE,68,8.0,-999.0,39,0.00,,,0.00,Wunderground v.1.15,2013-05-17 20:22:00,
2013-05-17 16:27:00,71.8,46.2,30.06,ENE,68,4.0,-999.0,40,0.00,,,0.00,Wunderground v.1.15,2013-05-17 20:27:00,
2013-05-17 16:32:00,72.0,45.7,30.06,ESE,113,6.0,-999.0,39,0.00,,,0.00,Wunderground v.1.15,2013-05-17 20:32:00,
2013-05-17 16:37:00,71.8,44.8,30.06,ESE,113,1.0,-999.0,38,0.00,,,0.00,Wunderground v.1.15,2013-05-17 20:37:00,
2013-05-17 16:42:00,71.8,44.8,30.06,NNE,23,5.0,-999.0,38,0.00,,,0.00,Wunderground v.1.15,2013-05-17 20:42:00,
2013-05-17 16:47:00,71.9,44.9,30.06,ENE,68,5.0,-999.0,38,0.00,,,0.00,Wunderground v.1.15,2013-05-17 20:47:00,
2013-05-17 16:52:00,72.1,45.1,30.06,NNE,23,4.0,-999.0,38,0.00,,,0.00,Wunderground v.1.15,2013-05-17 20:52:00,
2013-05-17 16:57:00,72.0,45.7,30.06,NE,45,3.0,-999.0,39,0.00,,,0.00,Wunderground v.1.15,2013-05-17 20:57:00,
2013-05-17 17:02:00,71.9,44.9,30.06,ENE,68,7.0,-999.0,38,0.00,,,0.00,Wunderground v.1.15,2013-05-17 21:02:00,
2013-05-17 17:07:00,71.3,45.7,30.05,East,90,1.0,-999.0,40,0.00,,,0.00,Wunderground v.1.15,2013-05-17 21:07:00,
2013-05-17 17:12:00,71.2,46.3,30.06,ESE,113,1.0,-999.0,41,0.00,,,0.00,Wunderground v.1.15,2013-05-17 21:12:00,
2013-05-17 17:17:00,71.4,46.5,30.06,East,90,2.0,-999.0,41,0.00,,,0.00,Wunderground v.1.15,2013-05-17 21:17:00,
2013-05-17 17:22:00,71.2,45.0,30.06,ENE,68,8.0,-999.0,39,0.00,,,0.00,Wunderground v.1.15,2013-05-17 21:22:00,
2013-05-17 17:27:00,70.8,44.6,30.06,ENE,68,7.0,-999.0,39,0.00,,,0.00,Wunderground v.1.15,2013-05-17 21:27:00,
2013-05-17 17:32:00,70.6,47.0,30.06,East,90,1.0,-999.0,43,0.00,,,0.00,Wunderground v.1.15,2013-05-17 21:32:00,
2013-05-17 17:37:00,70.8,44.6,30.06,NE,45,3.0,-999.0,39,0.00,,,0.00,Wunderground v.1.15,2013-05-17 21:37:00,
2013-05-17 17:42:00,70.6,45.1,30.07,NNE,23,4.0,-999.0,40,0.00,,,0.00,Wunderground v.1.15,2013-05-17 21:42:00,
2013-05-17 17:47:00,70.1,45.3,30.07,NE,45,5.0,-999.0,41,0.00,,,0.00,Wunderground v.1.15,2013-05-17 21:47:00,
2013-05-17 17:52:00,69.9,45.1,30.07,ENE,68,5.0,-999.0,41,0.00,,,0.00,Wunderground v.1.15,2013-05-17 21:52:00,
2013-05-17 17:57:00,69.7,44.9,30.07,East,90,6.0,-999.0,41,0.00,,,0.00,Wunderground v.1.15,2013-05-17 21:57:00,
2013-05-17 18:02:00,69.5,44.8,30.07,NE,45,6.0,-999.0,41,0.00,,,0.00,Wunderground v.1.15,2013-05-17 22:02:00,
2013-05-17 18:07:00,69.4,45.3,30.07,NE,45,5.0,-999.0,42,0.00,,,0.00,Wunderground v.1.15,2013-05-17 22:07:00,
2013-05-17 18:12:00,69.4,44.7,30.07,NE,45,6.0,-999.0,41,0.00,,,0.00,Wunderground v.1.15,2013-05-17 22:12:00,
2013-05-17 18:17:00,69.4,44.7,30.07,NE,45,5.0,-999.0,41,0.00,,,0.00,Wunderground v.1.15,2013-05-17 22:17:00,
2013-05-17 18:22:00,69.6,45.5,30.06,NNE,23,1.0,-999.0,42,0.00,,,0.00,Wunderground v.1.15,2013-05-17 22:22:00,
2013-05-17 18:27:00,69.9,45.1,30.07,NE,45,2.0,-999.0,41,0.00,,,0.00,Wunderground v.1.15,2013-05-17 22:27:00,
2013-05-17 18:32:00,69.5,44.8,30.07,ENE,68,4.0,-999.0,41,0.00,,,0.00,Wunderground v.1.15,2013-05-17 22:32:00,
2013-05-17 18:37:00,69.0,44.9,30.07,ENE,68,1.0,-999.0,42,0.00,,,0.00,Wunderground v.1.15,2013-05-17 22:37:00,
2013-05-17 18:42:00,68.8,45.4,30.07,NE,45,0.0,-999.0,43,0.00,,,0.00,Wunderground v.1.15,2013-05-17 22:42:00,
2013-05-17 18:47:00,68.7,45.3,30.07,ENE,68,3.0,-999.0,43,0.00,,,0.00,Wunderground v.1.15,2013-05-17 22:47:00,
2013-05-17 18:52:00,68.6,44.6,30.07,ENE,68,0.0,-999.0,42,0.00,,,0.00,Wunderground v.1.15,2013-05-17 22:52:00,
2013-05-17 18:57:00,68.6,45.2,30.07,North,0,3.0,-999.0,43,0.00,,,0.00,Wunderground v.1.15,2013-05-17 22:57:00,
2013-05-17 19:02:00,68.4,44.4,30.07,ENE,68,2.0,-999.0,42,0.00,,,0.00,Wunderground v.1.15,2013-05-17 23:02:00,
2013-05-17 19:07:00,68.2,42.9,30.07,ENE,68,4.0,-999.0,40,0.00,,,0.00,Wunderground v.1.15,2013-05-17 23:07:00,
2013-05-17 19:12:00,68.1,42.9,30.07,East,90,1.0,-999.0,40,0.00,,,0.00,Wunderground v.1.15,2013-05-17 23:12:00,
2013-05-17 19:17:00,68.0,42.8,30.08,East,90,4.0,-999.0,40,0.00,,,0.00,Wunderground v.1.15,2013-05-17 23:17:00,
2013-05-17 19:22:00,67.9,42.7,30.08,NE,45,3.0,-999.0,40,0.00,,,0.00,Wunderground v.1.15,2013-05-17 23:22:00,
2013-05-17 19:27:00,67.9,43.3,30.08,East,90,2.0,-999.0,41,0.00,,,0.00,Wunderground v.1.15,2013-05-17 23:27:00,
2013-05-17 19:32:00,67.8,43.2,30.08,SE,135,2.0,-999.0,41,0.00,,,0.00,Wunderground v.1.15,2013-05-17 23:32:00,
2013-05-17 19:37:00,67.7,43.8,30.08,East,90,3.0,-999.0,42,0.00,,,0.00,Wunderground v.1.15,2013-05-17 23:37:00,
2013-05-17 19:42:00,67.6,43.7,30.08,East,90,1.0,-999.0,42,0.00,,,0.00,Wunderground v.1.15,2013-05-17 23:42:00,
2013-05-17 19:47:00,67.6,44.3,30.08,ENE,68,4.0,-999.0,43,0.00,,,0.00,Wunderground v.1.15,2013-05-17 23:47:00,
2013-05-17 19:52:00,67.5,45.4,30.08,NE,45,6.0,-999.0,45,0.00,,,0.00,Wunderground v.1.15,2013-05-17 23:52:00,
2013-05-17 19:57:00,67.4,45.9,30.09,East,90,2.0,-999.0,46,0.00,,,0.00,Wunderground v.1.15,2013-05-17 23:57:00,
2013-05-17 20:02:00,67.2,46.3,30.09,ENE,68,3.0,-999.0,47,0.00,,,0.00,Wunderground v.1.15,2013-05-18 00:02:00,
2013-05-17 20:07:00,66.8,47.0,30.08,ESE,113,1.0,-999.0,49,0.00,,,0.00,Wunderground v.1.15,2013-05-18 00:07:00,
2013-05-17 20:12:00,66.5,47.3,30.08,ENE,68,5.0,-999.0,50,0.00,,,0.00,Wunderground v.1.15,2013-05-18 00:12:00,
2013-05-17 20:17:00,66.2,47.5,30.09,ENE,68,4.0,-999.0,51,0.00,,,0.00,Wunderground v.1.15,2013-05-18 00:17:00,
2013-05-17 20:22:00,66.0,47.9,30.09,NE,45,0.0,-999.0,52,0.00,,,0.00,Wunderground v.1.15,2013-05-18 00:22:00,
2013-05-17 20:27:00,65.8,47.7,30.09,NE,45,1.0,-999.0,52,0.00,,,0.00,Wunderground v.1.15,2013-05-18 00:27:00,
2013-05-17 20:32:00,65.5,47.9,30.10,NE,45,3.0,-999.0,53,0.00,,,0.00,Wunderground v.1.15,2013-05-18 00:32:00,
2013-05-17 20:37:00,65.3,47.7,30.10,NE,45,3.0,-999.0,53,0.00,,,0.00,Wunderground v.1.15,2013-05-18 00:37:00,
2013-05-17 20:42:00,65.1,47.5,30.10,NE,45,3.0,-999.0,53,0.00,,,0.00,Wunderground v.1.15,2013-05-18 00:42:00,
2013-05-17 20:47:00,64.9,47.4,30.10,East,90,3.0,-999.0,53,0.00,,,0.00,Wunderground v.1.15,2013-05-18 00:47:00,
2013-05-17 20:52:00,64.8,47.8,30.10,N/A,-737280,0.0,-999.0,54,0.00,,,0.00,Wunderground v.1.15,2013-05-18 00:52:00,
2013-05-17 20:57:00,64.6,47.1,30.10,ENE,68,5.0,-999.0,53,0.00,,,0.00,Wunderground v.1.15,2013-05-18 00:57:00,
2013-05-17 21:02:00,64.5,47.5,30.10,ENE,68,3.0,-999.0,54,0.00,,,0.00,Wunderground v.1.15,2013-05-18 01:02:00,
2013-05-17 21:07:00,64.3,47.3,30.10,ESE,113,2.0,-999.0,54,0.00,,,0.00,Wunderground v.1.15,2013-05-18 01:07:00,
2013-05-17 21:12:00,64.1,47.1,30.10,East,90,0.0,-999.0,54,0.00,,,0.00,Wunderground v.1.15,2013-05-18 01:12:00,
2013-05-17 21:17:00,64.0,47.0,30.10,NE,45,3.0,-999.0,54,0.00,,,0.00,Wunderground v.1.15,2013-05-18 01:17:00,
2013-05-17 21:22:00,63.9,46.9,30.10,East,90,1.0,-999.0,54,0.00,,,0.00,Wunderground v.1.15,2013-05-18 01:22:00,
2013-05-17 21:27:00,63.7,46.7,30.10,NE,45,2.0,-999.0,54,0.00,,,0.00,Wunderground v.1.15,2013-05-18 01:27:00,
2013-05-17 21:32:00,63.6,46.6,30.10,East,90,3.0,-999.0,54,0.00,,,0.00,Wunderground v.1.15,2013-05-18 01:32:00,
2013-05-17 21:37:00,63.4,46.0,30.10,ESE,113,3.0,-999.0,53,0.00,,,0.00,Wunderground v.1.15,2013-05-18 01:37:00,
2013-05-17 21:42:00,63.2,45.8,30.11,NE,45,5.0,-999.0,53,0.00,,,0.00,Wunderground v.1.15,2013-05-18 01:42:00,
2013-05-17 21:47:00,63.1,45.7,30.11,East,90,5.0,-999.0,53,0.00,,,0.00,Wunderground v.1.15,2013-05-18 01:47:00,
2013-05-17 21:52:00,62.9,45.5,30.11,ENE,68,4.0,-999.0,53,0.00,,,0.00,Wunderground v.1.15,2013-05-18 01:52:00,
2013-05-17 21:57:00,62.8,45.4,30.11,ESE,113,4.0,-999.0,53,0.00,,,0.00,Wunderground v.1.15,2013-05-18 01:57:00,
2013-05-17 22:02:00,62.6,45.7,30.11,ESE,113,2.0,-999.0,54,0.00,,,0.00,Wunderground v.1.15,2013-05-18 02:02:00,
2013-05-17 22:07:00,62.5,45.6,30.11,NE,45,2.0,-999.0,54,0.00,,,0.00,Wunderground v.1.15,2013-05-18 02:07:00,
2013-05-17 22:12:00,62.3,45.4,30.11,ENE,68,0.0,-999.0,54,0.00,,,0.00,Wunderground v.1.15,2013-05-18 02:12:00,
2013-05-17 22:17:00,62.2,44.9,30.10,East,90,4.0,-999.0,53,0.00,,,0.00,Wunderground v.1.15,2013-05-18 02:17:00,
2013-05-17 22:22:00,62.0,45.2,30.11,East,90,4.0,-999.0,54,0.00,,,0.00,Wunderground v.1.15,2013-05-18 02:22:00,
2013-05-17 22:27:00,61.9,45.1,30.11,ENE,68,3.0,-999.0,54,0.00,,,0.00,Wunderground v.1.15,2013-05-18 02:27:00,
2013-05-17 22:32:00,61.7,44.9,30.11,East,90,5.0,-999.0,54,0.00,,,0.00,Wunderground v.1.15,2013-05-18 02:32:00,
2013-05-17 22:37:00,61.5,45.2,30.11,ESE,113,4.0,-999.0,55,0.00,,,0.00,Wunderground v.1.15,2013-05-18 02:37:00,
2013-05-17 22:42:00,61.4,45.1,30.11,East,90,1.0,-999.0,55,0.00,,,0.00,Wunderground v.1.15,2013-05-18 02:42:00,
2013-05-17 22:47:00,61.3,45.0,30.11,ESE,113,0.0,-999.0,55,0.00,,,0.00,Wunderground v.1.15,2013-05-18 02:47:00,
2013-05-17 22:52:00,61.1,45.3,30.11,ESE,113,1.0,-999.0,56,0.00,,,0.00,Wunderground v.1.15,2013-05-18 02:52:00,
2013-05-17 22:57:00,61.0,45.2,30.11,ESE,113,2.0,-999.0,56,0.00,,,0.00,Wunderground v.1.15,2013-05-18 02:57:00,
2013-05-17 23:02:00,60.9,45.1,30.11,SSE,158,3.0,-999.0,56,0.00,,,0.00,Wunderground v.1.15,2013-05-18 03:02:00,
2013-05-17 23:07:00,60.8,45.0,30.11,ESE,113,4.0,-999.0,56,0.00,,,0.00,Wunderground v.1.15,2013-05-18 03:07:00,
2013-05-17 23:12:00,60.7,44.9,30.11,East,90,0.0,-999.0,56,0.00,,,0.00,Wunderground v.1.15,2013-05-18 03:12:00,
2013-05-17 23:17:00,60.6,44.8,30.11,ESE,113,3.0,-999.0,56,0.00,,,0.00,Wunderground v.1.15,2013-05-18 03:17:00,
2013-05-17 23:22:00,60.4,45.1,30.11,East,90,2.0,-999.0,57,0.00,,,0.00,Wunderground v.1.15,2013-05-18 03:22:00,
2013-05-17 23:27:00,60.3,45.0,30.11,ESE,113,3.0,-999.0,57,0.00,,,0.00,Wunderground v.1.15,2013-05-18 03:27:00,
2013-05-17 23:32:00,60.1,44.8,30.11,SE,135,2.0,-999.0,57,0.00,,,0.00,Wunderground v.1.15,2013-05-18 03:32:00,
2013-05-17 23:37:00,60.0,44.7,30.11,ESE,113,4.0,-999.0,57,0.00,,,0.00,Wunderground v.1.15,2013-05-18 03:37:00,
2013-05-17 23:42:00,59.8,44.5,30.11,ENE,68,3.0,-999.0,57,0.00,,,0.00,Wunderground v.1.15,2013-05-18 03:42:00,
2013-05-17 23:47:00,59.7,44.9,30.11,ENE,68,3.0,-999.0,58,0.00,,,0.00,Wunderground v.1.15,2013-05-18 03:47:00,
2013-05-17 23:52:00,59.6,44.3,30.11,ESE,113,4.0,-999.0,57,0.00,,,0.00,Wunderground v.1.15,2013-05-18 03:52:00,
2013-05-17 23:57:00,59.5,43.8,30.11,ESE,113,2.0,-999.0,56,0.00,,,0.00,Wunderground v.1.15,2013-05-18 03:57:00,